Time,TemperatureF,DewpointF,PressureIn,WindDirection,WindDirectionDegrees,WindSpeedMPH,WindSpeedGustMPH,Humidity,HourlyPrecipIn,Conditions,Clouds,dailyrainin,SoftwareType,DateUTC
2013-01-18 00:03:00,7.0,-2.0,30.29,SW,232,1.0,8.0,66,0.00,,,0.00,,2013-01-18 05:03:00,
2013-01-18 00:12:00,7.0,-2.0,30.29,SW,232,1.0,8.0,66,0.00,,,0.00,,2013-01-18 05:12:00,
2013-01-18 00:22:00,7.0,-2.0,30.29,WSW,254,2.0,7.0,66,0.00,,,0.00,,2013-01-18 05:22:00,
2013-01-18 00:33:00,7.0,-2.0,30.29,SW,218,0.0,8.0,66,0.00,,,0.00,,2013-01-18 05:33:00,
2013-01-18 00:42:00,7.0,-2.0,30.29,SW,218,0.0,8.0,66,0.00,,,0.00,,2013-01-18 05:42:00,
2013-01-18 00:52:00,7.0,-2.0,30.30,West,269,1.0,7.0,66,0.00,,,0.00,,2013-01-18 05:52:00,
2013-01-18 01:02:00,7.0,-2.0,30.31,WSW,245,3.0,11.0,66,0.00,,,0.00,,2013-01-18 06:02:00,
2013-01-18 01:12:00,7.0,-2.0,30.31,WSW,245,3.0,11.0,66,0.00,,,0.00,,2013-01-18 06:12:00,
2013-01-18 01:22:00,7.0,-2.0,30.30,WSW,240,0.0,14.0,66,0.00,,,0.00,,2013-01-18 06:22:00,
2013-01-18 01:33:00,7.0,-2.0,30.30,WSW,242,1.0,9.0,65,0.00,,,0.00,,2013-01-18 06:33:00,
2013-01-18 01:43:00,7.0,-2.0,30.30,WSW,242,1.0,9.0,65,0.00,,,0.00,,2013-01-18 06:43:00,
2013-01-18 01:52:00,7.0,-2.0,30.31,WSW,244,1.0,6.0,65,0.00,,,0.00,,2013-01-18 06:52:00,
2013-01-18 02:02:00,7.0,-2.0,30.31,South,186,0.0,8.0,65,0.00,,,0.00,,2013-01-18 07:02:00,
2013-01-18 02:12:00,7.0,-2.0,30.31,South,186,0.0,8.0,65,0.00,,,0.00,,2013-01-18 07:12:00,
2013-01-18 02:22:00,6.0,-3.0,30.31,South,189,0.0,6.0,66,0.00,,,0.00,,2013-01-18 07:22:00,
2013-01-18 02:32:00,5.0,-4.0,30.31,SW,231,1.0,10.0,66,0.00,,,0.00,,2013-01-18 07:32:00,
2013-01-18 02:42:00,5.0,-4.0,30.31,SW,231,1.0,10.0,66,0.00,,,0.00,,2013-01-18 07:42:00,
2013-01-18 02:52:00,5.0,-4.0,30.32,SE,140,0.0,4.0,67,0.00,,,0.00,,2013-01-18 07:52:00,
2013-01-18 03:02:00,5.0,-4.0,30.32,South,190,0.0,6.0,67,0.00,,,0.00,,2013-01-18 08:02:00,
2013-01-18 03:12:00,5.0,-4.0,30.32,South,190,0.0,6.0,67,0.00,,,0.00,,2013-01-18 08:12:00,
2013-01-18 03:22:00,5.0,-4.0,30.32,WNW,284,1.0,6.0,67,0.00,,,0.00,,2013-01-18 08:22:00,
2013-01-18 03:32:00,5.0,-4.0,30.31,WSW,252,0.0,10.0,67,0.00,,,0.00,,2013-01-18 08:32:00,
2013-01-18 03:42:00,5.0,-4.0,30.31,WSW,252,0.0,10.0,67,0.00,,,0.00,,2013-01-18 08:42:00,
2013-01-18 03:52:00,4.0,-4.0,30.30,WSW,255,0.0,10.0,67,0.00,,,0.00,,2013-01-18 08:52:00,
2013-01-18 04:02:00,4.0,-4.0,30.30,SW,229,0.0,7.0,68,0.00,,,0.00,,2013-01-18 09:02:00,
2013-01-18 04:12:00,4.0,-4.0,30.30,SW,229,0.0,7.0,68,0.00,,,0.00,,2013-01-18 09:12:00,
2013-01-18 04:22:00,4.0,-4.0,30.30,SE,143,0.0,7.0,67,0.00,,,0.00,,2013-01-18 09:22:00,
2013-01-18 04:33:00,4.0,-4.0,30.30,SSE,157,1.0,7.0,67,0.00,,,0.00,,2013-01-18 09:33:00,
2013-01-18 04:42:00,4.0,-4.0,30.30,SSE,157,1.0,7.0,67,0.00,,,0.00,,2013-01-18 09:42:00,
2013-01-18 04:52:00,4.0,-4.0,30.29,WSW,249,0.0,5.0,67,0.00,,,0.00,,2013-01-18 09:52:00,
2013-01-18 05:02:00,4.0,-4.0,30.29,SSW,209,0.0,6.0,67,0.00,,,0.00,,2013-01-18 10:02:00,
2013-01-18 05:12:00,4.0,-4.0,30.29,SSW,209,0.0,6.0,67,0.00,,,0.00,,2013-01-18 10:12:00,
2013-01-18 05:22:00,4.0,-4.0,30.29,WSW,243,1.0,7.0,67,0.00,,,0.00,,2013-01-18 10:22:00,
2013-01-18 05:32:00,5.0,-4.0,30.29,WNW,284,1.0,9.0,66,0.00,,,0.00,,2013-01-18 10:32:00,
2013-01-18 05:42:00,5.0,-4.0,30.29,WNW,284,1.0,9.0,66,0.00,,,0.00,,2013-01-18 10:42:00,
2013-01-18 05:52:00,5.0,-4.0,30.28,SW,225,1.0,7.0,66,0.00,,,0.00,,2013-01-18 10:52:00,
2013-01-18 06:02:00,5.0,-4.0,30.28,West,265,0.0,5.0,65,0.00,,,0.00,,2013-01-18 11:02:00,
2013-01-18 06:12:00,5.0,-4.0,30.28,West,265,0.0,5.0,65,0.00,,,0.00,,2013-01-18 11:12:00,
2013-01-18 06:23:00,5.0,-4.0,30.27,WSW,250,0.0,6.0,65,0.00,,,0.00,,2013-01-18 11:23:00,
2013-01-18 06:32:00,5.0,-4.0,30.27,SSE,164,0.0,4.0,65,0.00,,,0.00,,2013-01-18 11:32:00,
2013-01-18 06:42:00,5.0,-4.0,30.27,SSE,164,0.0,4.0,65,0.00,,,0.00,,2013-01-18 11:42:00,
2013-01-18 06:52:00,6.0,-4.0,30.26,WSW,247,1.0,6.0,64,0.00,,,0.00,,2013-01-18 11:52:00,
2013-01-18 07:03:00,5.0,-4.0,30.26,West,263,0.0,6.0,65,0.00,,,0.00,,2013-01-18 12:03:00,
2013-01-18 07:12:00,5.0,-4.0,30.26,West,263,0.0,6.0,65,0.00,,,0.00,,2013-01-18 12:12:00,
2013-01-18 07:22:00,6.0,-3.0,30.25,West,263,0.0,5.0,65,0.00,,,0.00,,2013-01-18 12:22:00,
2013-01-18 07:33:00,6.0,-3.0,30.25,West,263,0.0,5.0,65,0.00,,,0.00,,2013-01-18 12:33:00,
2013-01-18 07:43:00,6.0,-3.0,30.25,West,263,0.0,5.0,65,0.00,,,0.00,,2013-01-18 12:43:00,
2013-01-18 07:52:00,6.0,-3.0,30.25,West,263,0.0,5.0,65,0.00,,,0.00,,2013-01-18 12:52:00,
2013-01-18 08:03:00,7.0,-3.0,30.22,South,171,0.0,4.0,64,0.00,,,0.00,,2013-01-18 13:03:00,
2013-01-18 08:12:00,7.0,-3.0,30.22,South,171,0.0,4.0,64,0.00,,,0.00,,2013-01-18 13:12:00,
2013-01-18 08:23:00,7.0,-3.0,30.22,SSE,167,0.0,5.0,62,0.00,,,0.00,,2013-01-18 13:23:00,
2013-01-18 08:33:00,7.0,-3.0,30.21,South,172,0.0,2.0,62,0.00,,,0.00,,2013-01-18 13:33:00,
2013-01-18 08:43:00,7.0,-3.0,30.21,South,172,0.0,2.0,62,0.00,,,0.00,,2013-01-18 13:43:00,
2013-01-18 08:53:00,8.0,-2.0,30.21,SSE,167,0.0,1.0,63,0.00,,,0.00,,2013-01-18 13:53:00,
2013-01-18 09:03:00,8.0,-3.0,30.21,South,175,0.0,7.0,59,0.00,,,0.00,,2013-01-18 14:03:00,
2013-01-18 09:12:00,8.0,-3.0,30.21,South,175,0.0,7.0,59,0.00,,,0.00,,2013-01-18 14:12:00,
2013-01-18 09:23:00,9.0,-3.0,30.20,SSE,155,1.0,8.0,57,0.00,,,0.00,,2013-01-18 14:23:00,
2013-01-18 09:33:00,8.0,-4.0,30.20,South,178,2.0,6.0,58,0.00,,,0.00,,2013-01-18 14:33:00,
2013-01-18 09:42:00,8.0,-4.0,30.20,South,178,2.0,6.0,58,0.00,,,0.00,,2013-01-18 14:42:00,
2013-01-18 09:53:00,8.0,-3.0,30.18,South,174,3.0,8.0,60,0.00,,,0.00,,2013-01-18 14:53:00,
2013-01-18 10:03:00,8.0,-1.0,30.17,South,179,2.0,10.0,65,0.00,,,0.00,,2013-01-18 15:03:00,
2013-01-18 10:12:00,8.0,-1.0,30.17,South,179,2.0,10.0,65,0.00,,,0.00,,2013-01-18 15:12:00,
2013-01-18 10:23:00,8.0,-1.0,30.17,South,179,2.0,10.0,65,0.00,,,0.00,,2013-01-18 15:23:00,
2013-01-18 10:33:00,8.0,1.0,30.15,SSE,158,1.0,8.0,73,0.00,,,0.00,,2013-01-18 15:33:00,
2013-01-18 10:43:00,8.0,1.0,30.15,SSE,158,1.0,8.0,73,0.00,,,0.00,,2013-01-18 15:43:00,
2013-01-18 10:54:00,9.0,3.0,30.15,South,174,0.0,2.0,75,0.00,,,0.00,,2013-01-18 15:54:00,
2013-01-18 11:03:00,9.0,3.0,30.14,South,180,0.0,4.0,76,0.00,,,0.00,,2013-01-18 16:03:00,
2013-01-18 11:12:00,9.0,3.0,30.14,South,180,0.0,4.0,76,0.00,,,0.00,,2013-01-18 16:12:00,
2013-01-18 11:23:00,9.0,3.0,30.12,ESE,123,0.0,6.0,77,0.00,,,0.00,,2013-01-18 16:23:00,
2013-01-18 11:33:00,9.0,4.0,30.11,South,189,1.0,7.0,78,0.00,,,0.00,,2013-01-18 16:33:00,
2013-01-18 11:42:00,9.0,4.0,30.11,South,189,1.0,7.0,78,0.00,,,0.00,,2013-01-18 16:42:00,
2013-01-18 11:53:00,9.0,4.0,30.10,SSE,163,1.0,6.0,78,0.00,,,0.00,,2013-01-18 16:53:00,
2013-01-18 12:03:00,9.0,4.0,30.09,SSE,157,1.0,8.0,78,0.00,,,0.00,,2013-01-18 17:03:00,
2013-01-18 12:13:00,9.0,4.0,30.09,SSE,157,1.0,8.0,78,0.00,,,0.00,,2013-01-18 17:13:00,
2013-01-18 12:23:00,9.0,4.0,30.08,SSW,209,0.0,6.0,79,0.00,,,0.00,,2013-01-18 17:23:00,
2013-01-18 12:33:00,9.0,4.0,30.08,SSW,209,0.0,6.0,79,0.00,,,0.00,,2013-01-18 17:33:00,
2013-01-18 12:42:00,9.0,4.0,30.08,SSW,209,0.0,6.0,79,0.00,,,0.00,,2013-01-18 17:42:00,
2013-01-18 12:53:00,10.0,4.0,30.03,South,171,1.0,8.0,77,0.00,,,0.00,,2013-01-18 17:53:00,
2013-01-18 13:03:00,10.0,4.0,30.02,SSE,165,0.0,7.0,77,0.00,,,0.00,,2013-01-18 18:03:00,
2013-01-18 13:13:00,10.0,4.0,30.02,SSE,165,0.0,7.0,77,0.00,,,0.00,,2013-01-18 18:13:00,
2013-01-18 13:23:00,11.0,5.0,30.01,South,179,1.0,6.0,77,0.00,,,0.00,,2013-01-18 18:23:00,
2013-01-18 13:33:00,11.0,5.0,29.99,South,180,0.0,6.0,76,0.00,,,0.00,,2013-01-18 18:33:00,
2013-01-18 13:43:00,11.0,5.0,29.99,South,180,0.0,6.0,76,0.00,,,0.00,,2013-01-18 18:43:00,
2013-01-18 13:53:00,12.0,6.0,29.97,South,188,0.0,4.0,77,0.00,,,0.00,,2013-01-18 18:53:00,
2013-01-18 14:03:00,12.0,6.0,29.95,South,187,0.0,4.0,78,0.00,,,0.00,,2013-01-18 19:03:00,
2013-01-18 14:12:00,12.0,6.0,29.95,South,187,0.0,4.0,78,0.00,,,0.00,,2013-01-18 19:12:00,
2013-01-18 14:23:00,12.0,6.0,29.93,South,190,0.0,6.0,78,0.00,,,0.00,,2013-01-18 19:23:00,
2013-01-18 14:33:00,12.0,7.0,29.93,South,190,0.0,3.0,79,0.00,,,0.00,,2013-01-18 19:33:00,
2013-01-18 14:43:00,12.0,7.0,29.93,South,190,0.0,3.0,79,0.00,,,0.00,,2013-01-18 19:43:00,
2013-01-18 14:53:00,13.0,8.0,29.92,South,190,0.0,2.0,79,0.00,,,0.00,,2013-01-18 19:53:00,
2013-01-18 15:03:00,13.0,8.0,29.91,South,190,0.0,3.0,80,0.00,,,0.00,,2013-01-18 20:03:00,
2013-01-18 15:12:00,13.0,8.0,29.91,South,190,0.0,3.0,80,0.00,,,0.00,,2013-01-18 20:12:00,
2013-01-18 15:23:00,14.0,9.0,29.90,South,190,0.0,2.0,80,0.00,,,0.00,,2013-01-18 20:23:00,
2013-01-18 15:33:00,14.0,9.0,29.88,South,190,0.0,3.0,80,0.00,,,0.00,,2013-01-18 20:33:00,
2013-01-18 15:42:00,14.0,9.0,29.88,South,190,0.0,3.0,80,0.00,,,0.00,,2013-01-18 20:42:00,
2013-01-18 15:53:00,14.0,9.0,29.88,South,189,0.0,4.0,81,0.00,,,0.00,,2013-01-18 20:53:00,
2013-01-18 16:03:00,15.0,11.0,29.86,South,189,0.0,3.0,82,0.00,,,0.00,,2013-01-18 21:03:00,
2013-01-18 16:13:00,15.0,11.0,29.86,South,189,0.0,3.0,82,0.00,,,0.00,,2013-01-18 21:13:00,
2013-01-18 16:23:00,15.0,11.0,29.86,South,189,0.0,2.0,82,0.00,,,0.00,,2013-01-18 21:23:00,
2013-01-18 16:33:00,15.0,11.0,29.86,South,189,0.0,2.0,83,0.00,,,0.00,,2013-01-18 21:33:00,
2013-01-18 16:42:00,15.0,11.0,29.86,South,189,0.0,2.0,83,0.00,,,0.00,,2013-01-18 21:42:00,
2013-01-18 16:53:00,16.0,12.0,29.85,South,189,0.0,1.0,83,0.00,,,0.00,,2013-01-18 21:53:00,
2013-01-18 17:03:00,16.0,11.0,29.83,South,189,0.0,1.0,82,0.00,,,0.00,,2013-01-18 22:03:00,
2013-01-18 17:12:00,16.0,11.0,29.83,South,189,0.0,1.0,82,0.00,,,0.00,,2013-01-18 22:12:00,
2013-01-18 17:23:00,16.0,11.0,29.83,South,189,0.0,1.0,82,0.00,,,0.00,,2013-01-18 22:23:00,
2013-01-18 17:32:00,16.0,11.0,29.83,South,189,0.0,3.0,81,0.00,,,0.00,,2013-01-18 22:32:00,
2013-01-18 17:42:00,16.0,11.0,29.83,South,189,0.0,3.0,81,0.00,,,0.00,,2013-01-18 22:42:00,
2013-01-18 17:53:00,16.0,11.0,29.82,South,189,1.0,4.0,80,0.00,,,0.00,,2013-01-18 22:53:00,
2013-01-18 18:03:00,16.0,10.0,29.82,South,191,0.0,5.0,78,0.00,,,0.00,,2013-01-18 23:03:00,
2013-01-18 18:12:00,16.0,10.0,29.82,South,191,0.0,5.0,78,0.00,,,0.00,,2013-01-18 23:12:00,
2013-01-18 18:22:00,16.0,10.0,29.82,South,191,0.0,1.0,78,0.00,,,0.00,,2013-01-18 23:22:00,
2013-01-18 18:33:00,16.0,10.0,29.82,South,191,0.0,1.0,78,0.00,,,0.00,,2013-01-18 23:33:00,
2013-01-18 18:42:00,16.0,10.0,29.82,South,191,0.0,1.0,78,0.00,,,0.00,,2013-01-18 23:42:00,
2013-01-18 18:53:00,16.0,10.0,29.82,South,191,0.0,1.0,78,0.00,,,0.00,,2013-01-18 23:53:00,
2013-01-18 19:02:00,16.0,11.0,29.83,WSW,246,0.0,2.0,79,0.00,,,0.00,,2013-01-19 00:02:00,
2013-01-18 19:12:00,16.0,11.0,29.83,WSW,246,0.0,2.0,79,0.00,,,0.00,,2013-01-19 00:12:00,
2013-01-18 19:22:00,16.0,11.0,29.83,WSW,246,0.0,0.0,81,0.00,,,0.00,,2013-01-19 00:22:00,
2013-01-18 19:33:00,16.0,11.0,29.83,WSW,246,0.0,2.0,82,0.00,,,0.00,,2013-01-19 00:33:00,
2013-01-18 19:43:00,16.0,11.0,29.83,WSW,246,0.0,2.0,82,0.00,,,0.00,,2013-01-19 00:43:00,
2013-01-18 19:53:00,16.0,12.0,29.82,WSW,246,0.0,0.0,83,0.00,,,0.00,,2013-01-19 00:53:00,
2013-01-18 20:02:00,16.0,12.0,29.82,WNW,292,1.0,3.0,84,0.00,,,0.00,,2013-01-19 01:02:00,
2013-01-18 20:12:00,16.0,12.0,29.82,WNW,292,1.0,3.0,84,0.00,,,0.00,,2013-01-19 01:12:00,
2013-01-18 20:22:00,16.0,12.0,29.81,NW,314,0.0,3.0,84,0.00,,,0.00,,2013-01-19 01:22:00,
2013-01-18 20:32:00,16.0,12.0,29.80,NW,315,0.0,4.0,85,0.00,,,0.00,,2013-01-19 01:32:00,
2013-01-18 20:42:00,16.0,12.0,29.80,NW,315,0.0,4.0,85,0.00,,,0.00,,2013-01-19 01:42:00,
2013-01-18 20:53:00,16.0,13.0,29.79,NW,315,0.0,2.0,86,0.00,,,0.00,,2013-01-19 01:53:00,
2013-01-18 21:02:00,16.0,12.0,29.79,NW,315,0.0,3.0,85,0.00,,,0.00,,2013-01-19 02:02:00,
2013-01-18 21:12:00,16.0,12.0,29.79,NW,315,0.0,3.0,85,0.00,,,0.00,,2013-01-19 02:12:00,
2013-01-18 21:22:00,16.0,12.0,29.78,NW,315,0.0,2.0,85,0.00,,,0.00,,2013-01-19 02:22:00,
2013-01-18 21:33:00,16.0,13.0,29.79,NW,315,0.0,1.0,86,0.00,,,0.00,,2013-01-19 02:33:00,
2013-01-18 21:42:00,16.0,13.0,29.79,NW,315,0.0,1.0,86,0.00,,,0.00,,2013-01-19 02:42:00,
2013-01-18 21:53:00,17.0,13.0,29.79,WSW,255,0.0,4.0,85,0.00,,,0.00,,2013-01-19 02:53:00,
2013-01-18 22:03:00,17.0,13.0,29.78,WSW,244,0.0,3.0,85,0.00,,,0.00,,2013-01-19 03:03:00,
2013-01-18 22:12:00,17.0,13.0,29.78,WSW,244,0.0,3.0,85,0.00,,,0.00,,2013-01-19 03:12:00,
2013-01-18 22:22:00,17.0,13.0,29.78,WSW,244,0.0,2.0,84,0.00,,,0.00,,2013-01-19 03:22:00,
2013-01-18 22:33:00,17.0,13.0,29.78,WSW,244,0.0,4.0,84,0.00,,,0.00,,2013-01-19 03:33:00,
2013-01-18 22:43:00,17.0,13.0,29.78,WSW,244,0.0,4.0,84,0.00,,,0.00,,2013-01-19 03:43:00,
2013-01-18 22:53:00,17.0,13.0,29.78,WSW,244,0.0,2.0,84,0.00,,,0.00,,2013-01-19 03:53:00,
2013-01-18 23:02:00,17.0,13.0,29.77,WSW,244,0.0,4.0,83,0.00,,,0.00,,2013-01-19 04:02:00,
2013-01-18 23:12:00,17.0,13.0,29.77,WSW,244,0.0,4.0,83,0.00,,,0.00,,2013-01-19 04:12:00,
2013-01-18 23:22:00,17.0,13.0,29.77,WSW,244,0.0,4.0,83,0.00,,,0.00,,2013-01-19 04:22:00,
2013-01-18 23:32:00,17.0,12.0,29.76,WSW,244,0.0,2.0,82,0.00,,,0.00,,2013-01-19 04:32:00,
2013-01-18 23:42:00,17.0,12.0,29.76,WSW,244,0.0,2.0,82,0.00,,,0.00,,2013-01-19 04:42:00,
2013-01-18 23:53:00,18.0,13.0,29.77,WSW,244,0.0,2.0,82,0.00,,,0.00,,2013-01-19 04:53:00,